Toledo, OH

9:29 PM EDT on April 26, 2018 (GMT -0400)
Toledo Express

Weather History for KTOL - December, 2013

Change the Weather History Date:

Saturday, December 7, 2013

  Actual Average Record
Temperature  
Mean Temperature 20 °F 32 °F  
Max Temperature 27 °F 39 °F 62 °F (1951)
Min Temperature 13 °F 26 °F -2 °F (1885)
Degree Days  
Heating Degree Days 45 33  
Month to date heating degree days 204 221  
Since 1 July heating degree days 1552 1454  
Cooling Degree Days 0 0  
Month to date cooling degree days 0 0  
Year to date cooling degree days 793 793  
Moisture  
Dew Point 11 °F    
Average Humidity 63    
Maximum Humidity 80    
Minimum Humidity 46    
Precipitation  
Precipitation T in 0.09 in 1.80 in (1966)
Month to date precipitation T 0.64  
Year to date precipitation 33.76 32.20  
Snow  
Snow T in 0.20 in - ()
Month to date snowfall T 1.2  
Since 1 July snowfall 0.5 3.3  
Snow Depth 0.00 in    
Sea Level Pressure  
Sea Level Pressure 30.56 in    
Wind  
Wind Speed 5 mph (NW)    
Max Wind Speed 16 mph    
Max Gust Speed 22 mph    
Visibility 10 miles    
Events Snow    
T = Trace of Precipitation, MM = Missing Value Source: NWS Daily Summary

Daily Weather History Graph

Daily Weather History Graph

Search for Another Location

Airport or City:

Astronomy

Dec. 07, 2013 Rise Set
Actual Time 7:48 AM EST 5:04 PM EST
Civil Twilight 7:17 AM EST 5:36 PM EST
Nautical Twilight 6:42 AM EST 6:10 PM EST
Astronomical Twilight 6:09 AM EST 6:44 PM EST
Moon 11:30 AM EST (12/7) 10:48 PM EST (12/7)
Length of Visible Light 10h 18m
Length of Day
9h 16m
Waxing Crescent, 29% of the Moon is Illuminated
Dec 7
Waxing Crescent
Dec 9
First Quarter
Dec 17
Full
Dec 25
Last Quarter
Jan 1
New

Hourly Weather History & Observations

Time (EST) Temp. Windchill Dew Point Humidity Pressure Visibility Wind Dir Wind Speed Gust Speed Precip Events Conditions
12:52 AM 23.0 °F 14.7 °F 12.9 °F 65% 30.43 in 10.0 mi NW 6.9 mph - N/A   Overcast
1:52 AM 23.0 °F 11.7 °F 10.9 °F 60% 30.44 in 10.0 mi NNW 11.5 mph - N/A   Overcast
2:16 AM 21.2 °F 10.1 °F 10.4 °F 63% 30.42 in 10.0 mi NW 10.4 mph - N/A   Overcast
2:52 AM 21.0 °F 11.4 °F 10.9 °F 65% 30.46 in 10.0 mi NW 8.1 mph - N/A   Partly Cloudy
3:52 AM 19.0 °F 11.1 °F 10.0 °F 68% 30.48 in 10.0 mi WNW 5.8 mph - N/A   Scattered Clouds
4:52 AM 19.0 °F - 10.9 °F 71% 30.50 in 10.0 mi Calm Calm - N/A   Overcast
5:52 AM 19.0 °F - 10.9 °F 71% 30.53 in 10.0 mi Calm Calm - N/A   Overcast
6:52 AM 19.0 °F - 10.9 °F 71% 30.55 in 10.0 mi Calm Calm - N/A   Overcast
7:52 AM 19.0 °F - 12.0 °F 74% 30.56 in 10.0 mi Calm Calm - N/A   Mostly Cloudy
8:52 AM 21.0 °F 14.6 °F 12.0 °F 68% 30.58 in 10.0 mi WNW 4.6 mph - N/A   Clear
9:52 AM 23.0 °F 11.7 °F 10.0 °F 58% 30.59 in 10.0 mi NW 11.5 mph - N/A   Overcast
10:01 AM 21.2 °F 10.9 °F 10.4 °F 63% 30.56 in 10.0 mi NNW 9.2 mph - N/A   Overcast
10:12 AM 21.2 °F 11.7 °F 10.4 °F 63% 30.57 in 10.0 mi NW 8.1 mph - 0.00 in Snow Light Snow
10:20 AM 23.0 °F 14.7 °F 12.2 °F 63% 30.57 in 9.0 mi NNW 6.9 mph - 0.00 in Snow Light Snow
10:52 AM 21.9 °F 12.5 °F 14.0 °F 72% 30.62 in 8.0 mi NW 8.1 mph - 0.00 in Snow Light Snow
11:36 AM 24.8 °F 15.3 °F 10.4 °F 54% 30.58 in 10.0 mi NW 9.2 mph - 0.00 in   Scattered Clouds
11:52 AM 24.1 °F 13.7 °F 10.0 °F 55% 30.61 in 10.0 mi WNW 10.4 mph - 0.00 in   Clear
12:52 PM 25.0 °F 14.2 °F 10.0 °F 53% 30.60 in 10.0 mi West 11.5 mph 18.4 mph N/A   Scattered Clouds
1:52 PM 26.1 °F 16.8 °F 10.9 °F 53% 30.59 in 10.0 mi NW 9.2 mph - N/A   Mostly Cloudy
2:52 PM 26.1 °F 18.4 °F 10.0 °F 51% 30.57 in 10.0 mi Variable 6.9 mph - N/A   Partly Cloudy
3:52 PM 26.1 °F 16.8 °F 9.0 °F 49% 30.59 in 10.0 mi NNW 9.2 mph - N/A   Clear
4:52 PM 24.1 °F 16.0 °F 10.0 °F 55% 30.59 in 10.0 mi NW 6.9 mph - N/A   Partly Cloudy
5:52 PM 21.9 °F 15.7 °F 9.0 °F 58% 30.61 in 10.0 mi NW 4.6 mph - N/A   Clear
6:52 PM 19.9 °F 13.4 °F 10.0 °F 65% 30.62 in 10.0 mi NW 4.6 mph - N/A   Clear
7:52 PM 19.9 °F 14.9 °F 9.0 °F 62% 30.64 in 10.0 mi WNW 3.5 mph - N/A   Clear
8:52 PM 19.0 °F 13.9 °F 9.0 °F 65% 30.64 in 10.0 mi NW 3.5 mph - N/A   Clear
9:52 PM 17.1 °F - 9.0 °F 71% 30.63 in 10.0 mi Calm Calm - N/A   Clear
10:52 PM 14.0 °F - 9.0 °F 80% 30.63 in 10.0 mi Calm Calm - N/A   Clear
11:52 PM 15.1 °F - 9.0 °F 77% 30.62 in 10.0 mi Calm Calm - N/A   Clear